Location: Allos
(44.2333°N, 6.6333°E)
Time: 05:26:48
(UTC+00:00)

Lacrosse 5 rocket - Pass Details

Date: 01 December 2020
Orbit: 461 x 634 km, 57.0° (Epoch: 24 January)

Event Time Altitude Azimuth Distance (km) Brightness Sun altitude
Rises 16:41:54 0° 246° (WSW) 2,541 7.3 -8.2°
Reaches altitude 10° 16:44:10 10° 253° (WSW) 1,644 5.4 -8.6°
Maximum altitude 16:47:39 40° 325° (NW) 699 2.0 -9.2°
Drops below altitude 10° 16:51:05 10° 37° (NE) 1,616 3.2 -9.7°
Enters shadow 16:51:06 10° 37° (NE) 1,621 3.2 -9.7°
